Wind_Speed
7 6 4 4 4 4 4 5 5 5 5 6 5 5 6 6 5 4 4 3 3 3 3 3 3 4 5 5 6 7 8 8 8 8 8 8 8 8 7 7 7 7 7 6 6 7 7 7 8
9 7 6 5 5 6 6 6 5 6 6 7 6 5 5 5 5 4 4 3 3 3 3 3 4 5 5 5 6 7 8 8 8 8 9 9 9 8 8 8 8 7 7 7 7 7 7 7 7
10 9 7 7 7 7 7 6 6 7 6 7 7 6 5 5 5 5 4 3 2 3 3 3 4 5 5 5 7 8 8 8 9 9 9 9 9 8 8 9 9 8 7 7 7 7 7 7 7
10 9 9 9 8 8 8 7 7 7 6 6 7 7 6 5 5 5 4 3 2 2 3 4 4 4 5 6 7 8 8 9 9 8 9 9 9 9 9 9 9 9 8 8 8 8 8 8 8
12 11 10 9 9 8 8 7 7 8 7 6 7 7 6 6 5 5 4 3 2 2 2 3 4 4 5 6 7 8 8 8 8 8 9 9 10 10 10 10 9 9 8 8 8 8 8 8 8
13 12 11 10 9 8 9 8 8 7 7 6 6 6 5 6 5 5 4 3 2 2 2 3 4 5 6 7 7 7 7 8 8 8 9 10 10 10 10 10 10 9 9 8 8 7 8 8 9
13 13 12 11 10 9 9 8 8 7 7 6 5 5 5 6 6 5 4 3 3 2 2 3 3 4 5 6 6 7 7 8 9 9 10 10 10 10 10 10 10 9 9 8 8 7 8 8 9
14 13 12 12 11 10 9 8 8 7 8 7 6 6 6 6 6 5 4 4 3 2 2 2 3 4 5 5 6 7 8 8 9 10 11 11 10 10 10 10 9 9 9 9 8 8 8 8 8
15 14 14 13 12 11 9 8 8 7 7 7 6 6 6 6 6 5 4 3 3 2 1 1 3 4 4 5 6 7 8 9 10 10 11 11 11 11 11 10 10 10 10 9 8 8 7 7 8
17 16 15 14 12 11 10 9 9 9 8 7 7 7 6 7 6 5 3 3 2 2 1 1 3 4 4 5 6 7 8 9 10 11 11 12 11 11 11 11 10 10 9 9 8 8 7 7 8
19 18 18 16 13 13 12 11 10 10 9 7 6 6 7 7 6 5 4 3 2 1 1 2 3 3 4 5 7 7 8 9 10 11 12 12 12 11 11 11 11 10 9 9 8 7 6 6 7
20 19 18 17 15 14 13 12 11 11 9 8 7 7 7 7 7 5 4 3 2 1 1 2 3 3 4 6 7 7 8 10 11 11 12 13 13 12 12 12 11 11 10 9 8 6 6 5 6
20 20 18 16 15 15 14 13 12 11 9 8 7 7 7 7 6 5 5 3 3 1 1 1 2 3 4 5 6 7 9 10 11 12 13 13 13 13 12 12 12 12 10 9 8 7 5 4 4
21 21 20 18 16 16 15 14 13 11 10 9 8 8 7 7 6 5 4 4 3 2 1 1 2 3 4 5 6 8 9 10 12 13 13 14 14 13 13 12 12 12 11 10 8 7 5 4 3
20 20 20 19 18 17 16 15 14 12 11 10 9 9 8 8 7 6 5 4 4 3 2 2 2 3 4 5 7 8 9 11 12 13 14 14 14 14 14 13 13 12 12 11 9 8 6 4 3
20 20 19 19 18 18 16 15 14 13 12 11 10 9 9 9 8 7 6 5 4 4 3 3 3 3 4 6 7 8 9 11 12 13 14 14 15 15 14 14 14 13 13 12 11 9 7 6 5
21 20 20 20 19 19 18 16 15 14 13 12 11 11 10 10 8 8 7 6 5 4 4 3 3 3 5 6 7 8 9 10 12 13 14 14 15 15 15 15 15 15 15 14 12 11 9 8 7
20 20 20 20 19 20 19 18 16 15 15 14 13 12 11 10 9 9 8 7 7 5 4 3 3 4 5 6 7 8 9 10 12 13 13 14 15 15 15 15 15 16 16 15 14 13 11 10 9
21 21 21 21 20 20 20 20 19 17 15 13 13 13 12 11 10 9 9 8 7 6 5 4 4 4 5 6 7 8 9 10 11 12 13 14 15 15 15 15 15 15 16 15 15 14 13 12 11
23 22 22 22 22 21 20 20 19 18 16 14 13 12 13 12 11 10 9 9 8 7 6 5 4 4 4 5 6 7 8 9 10 11 13 14 15 15 15 16 16 15 15 15 15 14 13 13 12
23 22 21 22 21 20 20 19 18 17 17 15 14 14 14 13 12 11 10 9 9 8 7 6 5 4 4 4 5 7 8 9 10 11 12 13 14 15 15 16 16 15 15 15 15 14 14 13 13
23 23 23 23 21 21 20 19 19 18 18 17 15 14 14 14 13 11 10 10 9 8 8 7 6 4 4 4 4 6 7 8 9 10 11 12 13 14 15 16 16 16 15 15 14 15 14 14 13
22 23 23 23 22 22 21 19 18 18 19 17 16 15 15 15 14 12 11 10 10 9 8 7 6 5 4 3 3 4 6 7 8 9 10 12 13 14 15 16 16 16 15 15 14 14 14 13 13
22 21 21 22 23 22 20 19 18 17 17 17 17 16 15 15 15 13 12 12 11 10 9 8 7 6 4 3 2 3 5 6 7 8 9 11 12 13 14 15 16 16 16 15 15 14 13 13 12
21 20 20 21 21 19 18 20 19 17 17 16 16 16 15 15 14 14 14 13 12 11 10 9 8 6 5 4 2 2 3 5 6 7 8 10 11 12 13 14 15 15 15 15 15 14 13 13 13
19 20 18 18 17 15 18 19 18 18 17 17 17 16 16 16 15 15 15 14 13 12 11 10 9 8 6 5 3 1 2 3 5 6 7 9 10 11 12 12 13 14 14 14 14 14 13 12 12
20 21 19 17 16 13 15 16 16 15 16 17 17 17 16 15 16 15 15 15 14 13 12 12 10 9 7 6 4 2 1 2 3 5 6 7 9 10 11 12 12 13 13 13 13 13 13 12 12
19 20 20 19 17 15 13 12 13 14 15 17 17 16 15 16 15 16 15 15 15 14 13 12 11 10 9 7 5 4 2 1 2 3 4 6 7 8 9 10 11 12 12 12 12 12 12 12 11
18 20 20 20 19 16 14 15 15 15 15 17 17 16 16 15 15 16 16 15 15 15 14 14 12 11 10 9 7 5 4 2 0 2 3 5 6 7 8 9 10 11 11 12 12 12 12 12 11
18 19 20 20 19 18 16 15 14 14 15 17 17 17 17 17 17 17 17 17 16 16 15 14 13 12 11 10 8 7 5 4 2 2 3 4 5 6 8 9 10 10 10 11 11 11 12 12 12
Wind_Direction
241 241 243 244 243 251 253 252 240 229 226 227 228 232 233 236 236 236 242 248 271 296 300 306 326 336 336 341 345 348 347 345 346 345 343 342 340 335 334 329 324 320 314 309 299 288 280 274 265
239 239 238 239 245 249 251 250 244 241 240 238 235 231 234 233 230 240 245 247 265 288 299 309 325 335 339 345 345 344 343 343 343 342 342 341 338 335 332 327 323 322 316 309 302 297 286 279 269
239 237 237 241 248 250 251 250 249 248 247 243 236 231 234 231 236 245 243 243 262 279 302 321 328 335 343 347 347 344 344 344 343 341 341 339 336 334 331 329 324 321 314 307 302 296 288 280 269
238 237 238 243 249 248 253 252 256 258 255 252 238 230 229 233 240 243 235 237 250 282 310 323 329 345 349 347 347 347 346 346 346 346 344 341 340 337 332 328 325 322 315 306 300 294 286 277 267
236 234 236 243 249 246 253 255 255 258 259 252 237 232 229 233 239 238 227 227 247 277 303 325 339 348 347 347 348 350 353 352 350 350 348 345 343 340 335 331 327 324 317 308 299 294 285 278 267
233 230 236 243 246 248 248 254 258 254 253 246 229 221 221 230 233 235 221 225 243 269 294 325 340 344 347 352 356 359 357 355 354 353 349 345 343 341 337 332 327 321 315 310 303 295 285 278 269
234 232 237 242 245 246 248 251 252 246 244 240 227 225 231 227 226 226 220 225 242 266 293 318 334 345 352 358 2 2 360 359 357 354 351 347 344 343 340 336 331 325 318 311 304 293 283 278 270
233 235 235 240 242 242 247 250 247 248 246 241 230 234 227 217 215 220 224 232 247 270 301 321 344 358 2 4 6 7 6 3 359 357 355 351 348 346 342 338 335 330 325 316 307 297 285 276 269
232 234 233 238 241 239 239 245 247 245 248 238 231 237 231 210 207 215 227 233 250 271 304 342 3 11 12 10 9 10 8 6 3 0 358 354 351 345 342 339 335 329 325 318 308 301 291 277 269
233 232 233 235 240 242 239 241 245 245 244 240 236 232 226 211 210 214 225 225 246 265 305 2 22 20 18 16 16 13 9 5 3 1 358 355 353 351 349 346 340 334 328 320 313 305 296 280 271
232 232 233 237 239 242 242 242 242 246 241 239 240 233 229 214 212 217 233 230 244 274 335 26 34 25 21 19 18 14 9 7 6 3 0 358 358 357 355 352 348 343 336 328 321 314 301 285 275
232 232 233 234 238 242 239 238 239 241 236 239 244 235 226 220 215 217 225 226 226 223 73 51 40 27 22 21 19 14 11 9 7 5 4 2 2 1 359 357 354 350 345 339 334 326 312 296 285
232 233 234 235 234 237 235 234 232 234 232 234 237 231 229 217 210 216 223 221 211 188 112 66 40 35 25 21 16 16 15 12 11 9 6 5 5 4 2 1 1 358 353 347 341 337 329 321 299
233 232 232 235 236 232 230 230 227 230 232 229 228 224 220 217 207 208 213 208 199 184 159 98 64 51 35 26 22 24 19 14 13 11 10 11 12 10 7 5 6 5 3 360 357 352 346 341 326
233 232 233 233 234 230 228 232 230 231 227 228 227 223 218 218 209 204 210 206 200 185 156 120 85 63 46 35 31 29 23 18 16 15 16 17 17 15 14 14 14 12 12 11 11 11 10 4 356
230 228 230 230 231 229 229 231 232 230 228 227 222 219 217 218 213 208 202 197 191 174 152 128 101 72 51 43 37 32 26 22 21 21 21 22 21 21 22 23 22 21 21 21 23 26 31 33 30
229 228 229 229 228 227 226 228 228 230 231 228 222 218 219 217 210 204 197 190 183 171 154 133 107 76 56 48 39 34 29 27 26 25 26 26 25 25 26 27 27 27 28 28 31 35 40 43 47
227 227 228 228 228 227 226 227 232 234 233 227 225 219 217 212 205 197 192 188 180 171 160 142 113 85 65 51 41 37 34 32 29 30 30 30 29 28 28 29 30 30 31 34 38 44 48 50 54
223 224 225 228 227 226 229 230 233 236 232 227 225 213 212 209 200 194 190 185 181 177 169 151 126 94 71 55 45 42 39 36 34 34 35 34 32 32 31 32 32 33 36 40 44 49 53 54 55
222 224 224 226 227 226 229 231 232 235 230 226 222 214 208 204 198 196 190 187 183 178 170 159 141 110 82 63 52 47 44 40 38 38 37 36 34 34 34 34 35 38 39 42 46 50 53 55 56
224 223 222 224 228 229 228 229 231 233 228 222 216 212 207 200 197 195 190 188 184 180 174 167 149 123 96 76 61 52 46 44 42 40 38 37 36 36 37 37 38 39 40 44 46 48 52 55 57
222 221 222 225 225 226 225 229 228 225 223 219 215 211 207 201 194 194 194 190 184 181 178 170 159 143 119 93 69 56 48 45 44 42 40 38 37 37 38 38 39 40 42 43 45 48 51 54 56
222 223 222 224 226 226 225 232 232 230 222 215 213 213 210 205 198 196 197 191 186 183 179 175 169 159 140 114 84 61 51 48 45 42 41 40 39 38 39 39 40 41 41 42 43 45 49 51 53
221 222 223 226 228 229 226 231 233 235 222 216 214 211 210 205 200 200 198 194 191 187 183 180 177 172 161 144 114 71 55 51 46 44 42 41 40 38 38 39 40 40 41 42 42 43 47 50 52
219 219 221 223 228 232 227 232 232 229 221 217 214 211 210 207 203 203 199 196 193 191 190 188 187 185 181 170 151 90 62 54 49 46 43 41 39 37 36 36 37 37 38 41 42 43 47 48 48
219 217 216 219 227 231 227 234 231 228 223 218 213 210 213 209 207 204 202 200 198 197 197 196 194 195 194 187 177 134 81 61 55 48 42 38 37 36 35 35 35 35 36 37 39 41 42 42 42
217 215 212 212 216 221 226 231 230 228 221 216 215 213 214 212 209 206 203 202 201 202 202 201 200 202 202 198 193 176 130 80 62 50 40 35 32 33 34 34 33 33 34 34 34 35 37 37 35
218 215 211 212 212 220 222 224 232 223 220 219 216 215 216 213 212 209 205 205 204 205 204 204 205 207 209 207 204 198 188 139 71 46 31 26 28 29 30 29 29 30 29 29 30 29 29 29 27
216 215 214 214 215 217 221 222 224 225 221 220 218 219 216 214 217 213 209 211 208 207 208 207 208 209 212 211 210 208 210 210 215 15 11 12 16 18 20 22 22 23 24 24 24 25 23 20 18
217 216 215 213 214 218 222 221 213 218 219 218 218 216 217 217 217 215 213 211 210 210 210 211 212 213 214 214 216 218 220 227 251 307 339 353 2 7 10 12 12 12 12 14 15 16 15 13 11
Height
5878 5878 5879 5880 5882 5881 5880 5880 5880 5880 5881 5881 5882 5883 5884 5885 5887 5890 5888 5887 5888 5889 5888 5888 5888 5888 5887 5887 5886 5885 5885 5884 5882 5881 5881 5880 5879 5878 5877 5876 5875 5874 5874 5873 5873 5872 5872 5872 5872
5877 5878 5879 5880 5880 5880 5880 5879 5880 5880 5881 5881 5882 5883 5884 5885 5886 5886 5887 5888 5888 5888 5888 5888 5888 5888 5887 5886 5886 5885 5884 5883 5882 5881 5880 5879 5878 5877 5876 5875 5874 5873 5872 5872 5871 5871 5871 5870 5870
5876 5877 5879 5879 5878 5879 5879 5879 5879 5880 5880 5880 5882 5883 5884 5885 5885 5886 5886 5887 5888 5888 5888 5888 5888 5887 5887 5886 5885 5885 5883 5882 5881 5880 5879 5878 5877 5876 5875 5874 5873 5872 5871 5870 5870 5869 5869 5869 5869
5875 5876 5878 5878 5876 5877 5878 5878 5879 5879 5879 5880 5882 5883 5883 5884 5885 5885 5886 5887 5888 5888 5888 5888 5887 5887 5887 5886 5885 5884 5883 5881 5880 5879 5878 5877 5876 5874 5873 5872 5871 5870 5869 5869 5868 5868 5867 5867 5867
5873 5875 5876 5876 5876 5876 5877 5877 5878 5879 5879 5880 5881 5882 5882 5884 5884 5885 5886 5887 5888 5888 5888 5887 5887 5887 5886 5885 5884 5883 5882 5881 5880 5878 5877 5876 5874 5873 5872 5871 5869 5868 5867 5867 5866 5866 5865 5865 5865
5872 5873 5875 5874 5875 5875 5876 5876 5877 5878 5879 5879 5880 5881 5882 5883 5884 5885 5886 5887 5887 5887 5887 5887 5887 5886 5886 5885 5884 5883 5882 5880 5879 5878 5876 5875 5873 5872 5871 5869 5868 5867 5866 5865 5864 5864 5863 5863 5863
5870 5871 5872 5873 5873 5874 5875 5876 5876 5877 5878 5879 5880 5881 5882 5883 5884 5885 5886 5887 5887 5887 5887 5887 5887 5886 5885 5884 5883 5882 5881 5880 5879 5877 5876 5874 5872 5871 5869 5868 5866 5865 5863 5863 5862 5861 5861 5861 5861
5868 5870 5870 5871 5871 5873 5874 5874 5875 5877 5877 5878 5880 5881 5881 5882 5883 5884 5885 5886 5887 5887 5887 5887 5886 5886 5885 5884 5883 5882 5881 5880 5878 5876 5875 5873 5871 5869 5868 5866 5864 5863 5862 5861 5860 5859 5859 5859 5859
5866 5868 5868 5869 5870 5871 5872 5873 5874 5875 5876 5877 5879 5880 5881 5882 5883 5884 5885 5886 5886 5887 5887 5887 5886 5885 5885 5884 5883 5882 5881 5879 5878 5876 5874 5872 5870 5868 5866 5865 5863 5861 5860 5858 5858 5857 5856 5856 5856
5863 5865 5866 5867 5868 5869 5871 5872 5873 5874 5876 5877 5878 5879 5880 5881 5882 5884 5885 5885 5886 5886 5887 5886 5886 5885 5884 5884 5883 5882 5881 5879 5878 5876 5874 5872 5869 5867 5865 5863 5861 5859 5858 5856 5855 5855 5854 5854 5854
5861 5862 5864 5865 5867 5868 5869 5871 5872 5873 5875 5876 5877 5878 5879 5881 5882 5883 5884 5885 5886 5886 5886 5886 5885 5885 5884 5884 5883 5882 5881 5879 5877 5876 5873 5871 5869 5867 5864 5862 5860 5858 5856 5855 5853 5853 5852 5852 5852
5858 5860 5861 5864 5866 5867 5868 5870 5871 5872 5874 5875 5876 5877 5879 5880 5881 5882 5884 5884 5885 5886 5886 5886 5885 5885 5884 5884 5883 5882 5880 5879 5877 5875 5873 5871 5868 5866 5864 5862 5859 5857 5855 5853 5852 5851 5851 5850 5850
5855 5858 5859 5862 5864 5865 5867 5869 5870 5871 5872 5874 5875 5876 5878 5879 5880 5882 5883 5884 5885 5885 5885 5885 5885 5885 5884 5884 5883 5882 5880 5879 5877 5875 5873 5871 5868 5866 5863 5861 5859 5856 5854 5852 5851 5850 5849 5849 5848
5852 5855 5857 5860 5862 5864 5865 5867 5869 5870 5871 5873 5875 5876 5877 5879 5880 5881 5883 5884 5885 5885 5885 5885 5885 5885 5885 5884 5883 5882 5881 5879 5878 5876 5873 5871 5868 5866 5863 5861 5858 5856 5854 5852 5850 5849 5848 5848 5847
5849 5852 5855 5857 5859 5862 5864 5866 5868 5869 5871 5872 5874 5875 5876 5878 5879 5881 5882 5883 5884 5885 5885 5885 5885 5885 5885 5884 5884 5882 5881 5880 5878 5876 5874 5871 5869 5866 5863 5861 5859 5856 5854 5851 5850 5848 5847 5847 5846
5847 5850 5853 5855 5857 5859 5863 5864 5866 5868 5869 5871 5872 5874 5876 5878 5879 5880 5882 5883 5884 5885 5885 5886 5886 5886 5885 5885 5884 5883 5882 5880 5879 5877 5874 5872 5870 5867 5864 5862 5859 5857 5854 5852 5850 5849 5848 5847 5846
5844 5847 5850 5852 5854 5857 5860 5862 5864 5865 5868 5869 5871 5873 5875 5877 5878 5880 5881 5883 5884 5885 5885 5886 5886 5886 5886 5885 5885 5884 5883 5881 5880 5878 5875 5873 5871 5868 5865 5863 5861 5858 5856 5853 5852 5850 5849 5848 5847
5842 5844 5847 5850 5852 5855 5857 5860 5862 5864 5866 5867 5869 5872 5874 5875 5877 5879 5881 5882 5883 5885 5885 5886 5886 5886 5886 5886 5885 5885 5884 5882 5881 5879 5877 5874 5872 5870 5867 5865 5862 5860 5857 5855 5853 5851 5850 5849 5849
5838 5841 5844 5847 5849 5852 5854 5857 5860 5862 5864 5866 5868 5870 5872 5874 5876 5878 5880 5882 5883 5884 5885 5886 5886 5886 5887 5887 5886 5886 5885 5883 5882 5880 5878 5876 5874 5871 5869 5867 5864 5862 5859 5857 5855 5854 5853 5852 5851
5835 5838 5841 5843 5846 5849 5852 5854 5857 5860 5862 5864 5866 5868 5871 5873 5875 5877 5879 5881 5883 5884 5885 5886 5887 5887 5887 5887 5887 5887 5886 5885 5883 5882 5880 5878 5876 5874 5871 5869 5866 5864 5862 5860 5858 5857 5855 5854 5853
5832 5835 5838 5841 5843 5846 5849 5851 5854 5857 5859 5862 5865 5867 5869 5872 5874 5877 5879 5880 5882 5884 5885 5886 5887 5887 5888 5888 5888 5888 5887 5886 5885 5883 5882 5880 5878 5876 5873 5871 5869 5866 5864 5863 5861 5859 5858 5857 5856
5829 5832 5835 5838 5841 5844 5847 5849 5851 5854 5857 5860 5863 5865 5867 5870 5873 5875 5878 5880 5881 5883 5885 5886 5887 5888 5888 5889 5889 5889 5888 5887 5886 5885 5884 5882 5880 5878 5876 5873 5871 5869 5867 5865 5864 5862 5861 5860 5859
5826 5829 5832 5835 5838 5841 5843 5846 5849 5851 5854 5858 5861 5864 5866 5869 5871 5874 5877 5879 5881 5883 5884 5886 5887 5888 5889 5889 5890 5889 5889 5888 5887 5886 5885 5884 5882 5880 5878 5876 5873 5871 5870 5868 5866 5865 5863 5862 5861
5823 5826 5829 5832 5835 5838 5841 5844 5847 5849 5852 5856 5859 5862 5864 5867 5870 5873 5876 5878 5880 5882 5884 5885 5887 5888 5889 5889 5890 5890 5890 5889 5889 5888 5887 5885 5884 5882 5880 5878 5876 5874 5872 5870 5869 5867 5866 5865 5864
5821 5825 5828 5830 5833 5836 5839 5841 5845 5847 5850 5853 5857 5860 5863 5866 5869 5872 5874 5877 5879 5881 5883 5885 5886 5888 5889 5890 5890 5891 5890 5890 5890 5889 5888 5887 5885 5884 5882 5880 5879 5877 5875 5873 5871 5870 5869 5868 5867
5819 5823 5827 5830 5832 5835 5837 5838 5843 5845 5848 5851 5855 5858 5861 5864 5867 5870 5873 5875 5878 5880 5882 5884 5886 5887 5888 5889 5890 5891 5891 5891 5890 5890 5889 5888 5887 5885 5884 5882 5881 5879 5877 5875 5874 5873 5871 5870 5870
5816 5820 5824 5827 5829 5832 5834 5837 5840 5842 5845 5849 5853 5856 5859 5862 5865 5868 5871 5874 5876 5879 5881 5883 5885 5886 5888 5889 5890 5891 5891 5891 5891 5891 5890 5889 5888 5887 5885 5884 5882 5881 5879 5878 5876 5875 5874 5873 5872
5814 5818 5821 5824 5828 5830 5833 5835 5838 5841 5844 5847 5850 5854 5857 5860 5863 5866 5869 5872 5875 5877 5879 5881 5883 5885 5887 5888 5889 5890 5891 5891 5891 5891 5891 5890 5889 5888 5887 5886 5884 5882 5881 5880 5878 5877 5876 5875 5874
5813 5816 5819 5822 5826 5829 5831 5835 5836 5839 5843 5846 5849 5852 5855 5857 5861 5864 5867 5870 5873 5875 5878 5880 5882 5884 5886 5887 5889 5890 5891 5891 5891 5891 5891 5890 5890 5889 5888 5887 5885 5884 5882 5881 5879 5878 5877 5876 5875
5810 5813 5817 5821 5824 5826 5829 5834 5833 5837 5841 5844 5847 5850 5852 5855 5858 5862 5865 5868 5871 5873 5876 5878 5881 5883 5884 5886 5888 5889 5890 5890 5891 5891 5891 5891 5890 5889 5888 5887 5886 5885 5883 5882 5880 5879 5878 5877 5875